Retour au catalogue

OPS 4682 DEB

ActifPO
NORAD 38410·DEBRIS·🇺🇸 United States

Lancé Apr 3, 1965 depuis Vandenberg Space Force Base

Loading…

Prochains Passages (prochaines 24 heures)

TLE

FraisSource: Space-Track

Époque: Sep 14, 2026, 13:33 UTC

1 38410U 65027DP  26257.56483243  .00000120  00000-0  38685-3 0  9999
2 38410  90.2517  12.8191 0032288 226.9677 132.8739 12.97596561642596

Suivez OPS 4682 DEB en temps réel avec AllMySat

Download on the App Store